Airfield :
LOGIN :

Register | Disclaimer

   EN    FR    IT 

 










Legend :    VFR   Marginal VFR   IFR   Intensive IFR   Very Intensive IFR
Visi :
Ceiling :
>= 8 km
>= 3000ft
5 to 8 km
1000 to 3000 ft
1500m to 5 km
500 to 1000 ft
800 to 1500m
200 to 500 ft
< 800m
< 200 ft
Symbols :   Thunderstorms  Fog  Heavy snow  Heavy precipitations  Wind > 20 kt
SIGMETs :     Misc.  Thunderstorms  Icing  Turbulence  Mountain Waves  Volcanic Ashes







- Airport Elevation : 52 ft
- IATA code : RNN


EKRN - Bornholm Ronne

CURRENT METAR :
  • 281150Z 13009KT 9999 FEW040 10/01 Q1014

EXPIRED METARs :
  • 281120Z 12007KT 9999 FEW040 10/01 Q1014
  • 281050Z 12007KT 9999 FEW040 10/02 Q1014
  • 281020Z 13006KT CAVOK 09/02 Q1014
  • 280950Z 12007KT CAVOK 09/02 Q1014
  • 280920Z 12009KT CAVOK 09/05 Q1014

TAF TAF EKRN
Valid from the 28 at 12:00 until the 28 at 21:00 UTC


281102Z 2812/2821 12010KT CAVOK
No reported NOTAMs for that airfield.



MET'MAP, your aeronautical weather chart ! - Copyright ORBIFLY December 2007 - Disclaimer

ORBIFLY MET'MAP TEAM :

Programming & Development : Alexandra Zaïnal
Concept & Development : Baudouin d'Aumeries
Co-Development & Prog : Marc-Olivier Méhu
Technical & hardware support : Manuel Goepfert

Contact : metmap@orbifly.com




SOURCES & CREDITS :

   NOAA